TimeAKST,TemperatureF,Dew PointF,Humidity,Sea Level PressureIn,VisibilityMPH,Wind Direction,Wind SpeedMPH,Gust SpeedMPH,PrecipitationIn,Events,Conditions,WindDirDegrees,DateUTC
12:53 AM,43.0,39.9,89,29.52,6.0,NE,18.4,-,N/A,,Overcast,40,2014-01-27 09:53:00
1:53 AM,43.0,39.9,89,29.50,6.0,NE,17.3,-,N/A,,Overcast,50,2014-01-27 10:53:00
2:08 AM,42.8,39.2,87,29.49,7.0,NE,19.6,-,N/A,,Overcast,50,2014-01-27 11:08:00
3:37 AM,42.8,39.2,87,29.46,6.0,ENE,18.4,25.3,N/A,,Overcast,60,2014-01-27 12:37:00
3:53 AM,43.0,39.9,89,29.45,6.0,NE,18.4,-,N/A,,Overcast,50,2014-01-27 12:53:00
4:40 AM,42.8,39.2,87,29.41,2.5,NE,21.9,-,0.00,,Overcast,50,2014-01-27 13:40:00
4:53 AM,43.0,41.0,93,29.41,2.5,NE,18.4,29.9,0.00,Rain,Light Rain,50,2014-01-27 13:53:00
5:13 AM,42.8,41.0,93,29.40,1.5,NE,20.7,28.8,0.01,,Overcast,50,2014-01-27 14:13:00
5:32 AM,42.8,41.0,93,29.38,2.5,NE,23.0,-,0.02,Rain,Light Rain,50,2014-01-27 14:32:00
5:41 AM,42.8,41.0,93,29.38,4.0,NE,25.3,-,0.02,Rain,Light Rain,50,2014-01-27 14:41:00
5:53 AM,43.0,41.0,93,29.38,5.0,NE,23.0,-,0.03,Rain,Light Rain,50,2014-01-27 14:53:00
6:16 AM,42.8,39.2,87,29.36,3.0,NE,25.3,33.4,0.00,Rain,Rain,50,2014-01-27 15:16:00
6:35 AM,42.8,41.0,93,29.35,3.0,NE,26.5,33.4,0.03,Rain,Rain,40,2014-01-27 15:35:00
6:53 AM,43.0,41.0,93,29.34,4.0,NE,24.2,31.1,0.06,Rain,Rain,50,2014-01-27 15:53:00
7:53 AM,43.0,41.0,93,29.33,5.0,NE,26.5,38.0,0.08,Rain,Light Rain,50,2014-01-27 16:53:00
8:53 AM,43.0,42.1,97,29.34,4.0,NE,24.2,29.9,0.00,Rain,Light Rain,50,2014-01-27 17:53:00
9:53 AM,43.0,42.1,97,29.33,4.0,NE,23.0,31.1,0.01,Rain,Light Rain,50,2014-01-27 18:53:00
10:40 AM,44.6,42.8,93,29.31,3.0,NE,26.5,36.8,0.01,Rain,Light Rain,50,2014-01-27 19:40:00
10:53 AM,44.1,42.1,93,29.30,4.0,ENE,26.5,38.0,0.01,Rain,Light Rain,60,2014-01-27 19:53:00
11:20 AM,44.6,41.0,87,29.28,2.0,ENE,24.2,39.1,0.00,Rain,Light Rain,60,2014-01-27 20:20:00
11:53 AM,43.0,42.1,97,29.28,2.0,ENE,20.7,28.8,0.03,Rain,Light Rain,70,2014-01-27 20:53:00
12:53 PM,44.1,41.0,89,29.35,5.0,SE,19.6,26.5,0.08,Rain,Light Rain,140,2014-01-27 21:53:00
1:53 PM,44.1,39.0,82,29.43,5.0,SE,27.6,35.7,0.09,Rain,Light Rain,130,2014-01-27 22:53:00
2:53 PM,44.1,39.0,82,29.49,7.0,ESE,21.9,35.7,0.00,Rain,Light Rain,120,2014-01-27 23:53:00
3:53 PM,43.0,39.0,86,29.53,7.0,ESE,24.2,-,0.00,Rain,Light Rain,120,2014-01-28 00:53:00
4:53 PM,43.0,39.9,89,29.59,7.0,East,24.2,-,0.00,Rain,Light Rain,100,2014-01-28 01:53:00
5:53 PM,42.1,39.9,92,29.63,7.0,East,19.6,-,0.00,Rain,Light Rain,100,2014-01-28 02:53:00
6:53 PM,42.1,39.9,92,29.65,7.0,East,23.0,-,0.00,Rain,Light Rain,100,2014-01-28 03:53:00
7:53 PM,42.1,39.9,92,29.67,6.0,East,24.2,-,0.00,,Overcast,100,2014-01-28 04:53:00
8:12 PM,42.8,39.2,87,29.67,6.0,East,23.0,-,N/A,,Overcast,100,2014-01-28 05:12:00
8:22 PM,42.8,39.2,87,29.67,6.0,East,23.0,-,N/A,,Overcast,100,2014-01-28 05:22:00
8:53 PM,42.1,39.0,89,29.68,6.0,East,19.6,-,N/A,,Overcast,100,2014-01-28 05:53:00
9:46 PM,42.8,39.2,87,29.70,7.0,East,18.4,-,N/A,,Overcast,100,2014-01-28 06:46:00
9:53 PM,42.1,39.9,92,29.70,6.0,East,19.6,-,N/A,,Overcast,100,2014-01-28 06:53:00
10:29 PM,42.8,39.2,87,29.71,6.0,East,18.4,-,N/A,,Overcast,100,2014-01-28 07:29:00
10:53 PM,42.1,39.9,92,29.72,6.0,East,18.4,-,N/A,,Overcast,100,2014-01-28 07:53:00
11:53 PM,42.1,39.0,89,29.73,7.0,ESE,16.1,-,N/A,,Overcast,110,2014-01-28 08:53:00